Flag for U.S.A. Weather past 2 weeks in Marengo, Indiana, U.S.A.

Now
79 °F

Clear.


Feels Like: 82 °F
Forecast: 70 / 90 °F
Wind: 5 mph from Southwest

Location: Bowling Green-Warren County Regional Airport

Current Time: Aug 20, 2014 at 3:00:37 AM

Latest Report: Aug 20, 2014 at 1:53 AM


Visibility: 10 mi

Pressure: 29.87 "Hg

Humidity: 82%

Dew point: 73 °F

Location of MarengoLocation

Historic Weather in Marengo — Graph

°F

Marengo temperature yesterday

Maximum temperature yesterday: 89 °F (at 3:53 PM)
Minimum temperature yesterday: 71 °F (at 6:53 AM)
Average temperature yesterday: 79 °F

Past Weeks' High & Low Weather Summary

 TemperatureHumidityPressure
High93 °F (Aug 7, 2:53 PM)97% (Aug 10, 1:53 AM)30.09 "Hg (Aug 10, 1:53 AM)
Low60 °F (Aug 14, 4:53 AM)31% (Aug 5, 12:53 PM)29.80 "Hg (Aug 19, 6:53 PM)
Average76 °F72%29.95 "Hg
* Reported Aug 5 1:53 AM — Aug 20 1:53 AM, Marengo, Weather by CustomWeather, © 2014

Note: Actual official high and low records may vary slightly from our data, if they occured in-between our weather recording intervals... More about our weather records

Advertising

Marengo weather history for previous 24 hours

 ConditionsComfort  
Time TempWeatherWind HumidityBarometerVisibility
1:53 AM
Aug 20
79 °FClear.5 mph82%29.87 "Hg10 mi
12:53 AM80 °FPassing clouds.6 mph76%29.88 "Hg10 mi
11:53 PM
Aug 19
80 °FPassing clouds.5 mph76%29.86 "Hg10 mi
10:53 PM82 °FPassing clouds.8 mph72%29.86 "Hg10 mi
9:53 PM83 °FClear.7 mph68%29.84 "Hg10 mi
8:53 PM84 °FSunny.8 mph65%29.83 "Hg10 mi
7:53 PM86 °FSunny.6 mph59%29.82 "Hg10 mi
6:53 PM87 °FPassing clouds.6 mph55%29.80 "Hg10 mi
5:53 PM89 °FPassing clouds.5 mph50%29.81 "Hg10 mi
4:53 PM88 °FPassing clouds.5 mph54%29.83 "Hg10 mi
3:53 PM89 °FPassing clouds.5 mph53%29.84 "Hg10 mi
2:53 PM87 °FScattered clouds.No wind53%29.86 "Hg10 mi
1:53 PM85 °FPassing clouds.3 mph59%29.88 "Hg10 mi
12:53 PM83 °FBroken clouds.3 mph63%29.89 "Hg10 mi
12:01 PM79 °FPartly sunny.7 mph77%29.92 "Hg10 mi
11:00 AM76 °FOvercast.3 mph85%29.93 "Hg10 mi
9:53 AM75 °FLow clouds.6 mph88%29.89 "Hg7 mi
8:53 AM73 °FFog.8 mph94%29.88 "Hg5 mi
7:53 AM72 °FFog.3 mph97%29.88 "Hg1 mi
7:02 AM71 °FFog.6 mph96%29.88 "Hg1 mi
6:53 AM71 °FFog.5 mph96%29.85 "Hg1 mi
5:53 AM72 °FFog.6 mph93%29.84 "Hg6 mi
4:53 AM72 °FPassing clouds.6 mph91%29.83 "Hg9 mi
3:53 AM72 °FPassing clouds.No wind91%29.81 "Hg10 mi
Weather by CustomWeather, © 2014

See weather overviewHow to use our weather pages